Wetterdaten: Dienstag, 21.08.2018
Datum Zeit Temp. Auen Feucht Auen Luftdruck Regen Richtung Richtung Windben
21.08.2018 00:00 19,3 C 79 % 1017,2 hPa 0,0 mm W 267 6,4 km/h (2 Bft)
21.08.2018 00:05 19,3 C 80 % 1017,3 hPa 0,0 mm W 267 6,4 km/h (2 Bft)
21.08.2018 00:10 19,4 C 79 % 1017,3 hPa 0,0 mm W 267 6,4 km/h (2 Bft)
21.08.2018 00:15 19,4 C 79 % 1017,2 hPa 0,0 mm W 267 6,4 km/h (2 Bft)
21.08.2018 00:20 19,4 C 79 % 1017,2 hPa 0,0 mm W 267 6,4 km/h (2 Bft)
21.08.2018 00:25 19,3 C 79 % 1017,2 hPa 0,0 mm W 267 3,2 km/h (1 Bft)
21.08.2018 00:30 19,2 C 80 % 1017,2 hPa 0,0 mm W 267 4,8 km/h (1 Bft)
21.08.2018 00:35 19,1 C 80 % 1017,2 hPa 0,0 mm W 267 4,8 km/h (1 Bft)
21.08.2018 00:40 19,0 C 80 % 1017,2 hPa 0,0 mm W 266 4,8 km/h (1 Bft)
21.08.2018 00:45 18,9 C 80 % 1017,2 hPa 0,0 mm W 266 4,8 km/h (1 Bft)
21.08.2018 00:50 18,8 C 81 % 1017,2 hPa 0,0 mm W 266 4,8 km/h (1 Bft)
21.08.2018 00:55 18,7 C 81 % 1017,2 hPa 0,0 mm W 266 6,4 km/h (2 Bft)
21.08.2018 01:00 18,5 C 81 % 1017,3 hPa 0,0 mm W 267 4,8 km/h (1 Bft)
21.08.2018 01:05 18,3 C 82 % 1017,3 hPa 0,0 mm W 267 4,8 km/h (1 Bft)
21.08.2018 01:10 18,3 C 82 % 1017,2 hPa 0,0 mm W 267 4,8 km/h (1 Bft)
21.08.2018 01:15 18,3 C 82 % 1017,2 hPa 0,0 mm W 267 3,2 km/h (1 Bft)
21.08.2018 01:20 18,1 C 82 % 1017,2 hPa 0,0 mm W 267 3,2 km/h (1 Bft)
21.08.2018 01:25 17,8 C 83 % 1017,3 hPa 0,0 mm W 267 6,4 km/h (2 Bft)
21.08.2018 01:30 17,8 C 83 % 1017,3 hPa 0,0 mm W 268 6,4 km/h (2 Bft)
21.08.2018 01:35 17,9 C 83 % 1017,4 hPa 0,0 mm W 268 4,8 km/h (1 Bft)
21.08.2018 01:40 17,8 C 83 % 1017,4 hPa 0,0 mm W 268 3,2 km/h (1 Bft)
21.08.2018 01:45 17,8 C 83 % 1017,4 hPa 0,0 mm W 268 4,8 km/h (1 Bft)
21.08.2018 01:50 17,8 C 83 % 1017,4 hPa 0,0 mm W 268 3,2 km/h (1 Bft)
21.08.2018 01:55 17,8 C 83 % 1017,4 hPa 0,0 mm W 268 4,8 km/h (1 Bft)
21.08.2018 02:00 17,7 C 83 % 1017,4 hPa 0,0 mm W 268 1,6 km/h (1 Bft)
21.08.2018 02:05 17,3 C 83 % 1017,4 hPa 0,0 mm W 268 3,2 km/h (1 Bft)
21.08.2018 02:10 17,2 C 84 % 1017,4 hPa 0,0 mm W 268 3,2 km/h (1 Bft)
21.08.2018 02:15 17,2 C 85 % 1017,5 hPa 0,0 mm W 268 3,2 km/h (1 Bft)
21.08.2018 02:20 17,4 C 84 % 1017,4 hPa 0,0 mm W 268 3,2 km/h (1 Bft)
21.08.2018 02:25 17,4 C 83 % 1017,4 hPa 0,0 mm W 268 3,2 km/h (1 Bft)
21.08.2018 02:30 17,2 C 84 % 1017,4 hPa 0,0 mm W 268 1,6 km/h (1 Bft)
21.08.2018 02:35 16,8 C 85 % 1017,4 hPa 0,0 mm W 268 4,8 km/h (1 Bft)
21.08.2018 02:40 16,6 C 86 % 1017,4 hPa 0,0 mm W 268 3,2 km/h (1 Bft)
21.08.2018 02:45 16,5 C 86 % 1017,3 hPa 0,0 mm W 268 4,8 km/h (1 Bft)
21.08.2018 02:50 16,7 C 86 % 1017,4 hPa 0,0 mm W 268 3,2 km/h (1 Bft)
21.08.2018 02:55 16,8 C 86 % 1017,4 hPa 0,0 mm W 268 4,8 km/h (1 Bft)
21.08.2018 03:00 16,5 C 86 % 1017,4 hPa 0,0 mm W 268 0,0 km/h (0 Bft)
21.08.2018 03:05 16,2 C 86 % 1017,4 hPa 0,0 mm W 268 1,6 km/h (1 Bft)
21.08.2018 03:10 16,2 C 87 % 1017,4 hPa 0,0 mm W 268 3,2 km/h (1 Bft)
21.08.2018 03:15 16,3 C 87 % 1017,4 hPa 0,0 mm W 268 4,8 km/h (1 Bft)
21.08.2018 03:20 16,3 C 87 % 1017,4 hPa 0,0 mm W 268 4,8 km/h (1 Bft)
21.08.2018 03:25 16,1 C 86 % 1017,4 hPa 0,0 mm W 268 3,2 km/h (1 Bft)
21.08.2018 03:30 15,8 C 87 % 1017,4 hPa 0,0 mm W 268 1,6 km/h (1 Bft)
21.08.2018 03:35 15,7 C 88 % 1017,4 hPa 0,0 mm W 268 0,0 km/h (0 Bft)
21.08.2018 03:40 15,8 C 88 % 1017,4 hPa 0,0 mm W 268 3,2 km/h (1 Bft)
21.08.2018 03:45 15,9 C 88 % 1017,4 hPa 0,0 mm W 268 3,2 km/h (1 Bft)
21.08.2018 03:50 16,0 C 88 % 1017,3 hPa 0,0 mm W 268 4,8 km/h (1 Bft)
21.08.2018 03:55 16,2 C 87 % 1017,3 hPa 0,0 mm W 268 4,8 km/h (1 Bft)
21.08.2018 04:00 16,3 C 87 % 1017,3 hPa 0,0 mm W 268 1,6 km/h (1 Bft)
21.08.2018 04:05 16,3 C 87 % 1017,4 hPa 0,0 mm W 268 3,2 km/h (1 Bft)
21.08.2018 04:10 16,4 C 87 % 1017,4 hPa 0,0 mm W 268 4,8 km/h (1 Bft)
21.08.2018 04:15 16,3 C 86 % 1017,3 hPa 0,0 mm W 268 3,2 km/h (1 Bft)
21.08.2018 04:20 16,4 C 86 % 1017,3 hPa 0,0 mm W 268 4,8 km/h (1 Bft)
21.08.2018 04:25 16,3 C 86 % 1017,3 hPa 0,0 mm W 268 3,2 km/h (1 Bft)
21.08.2018 04:30 16,1 C 87 % 1017,3 hPa 0,0 mm W 268 1,6 km/h (1 Bft)
21.08.2018 04:35 16,1 C 87 % 1017,3 hPa 0,0 mm W 268 3,2 km/h (1 Bft)
21.08.2018 04:40 15,9 C 87 % 1017,3 hPa 0,0 mm W 268 3,2 km/h (1 Bft)
21.08.2018 04:45 15,7 C 87 % 1017,3 hPa 0,0 mm W 268 3,2 km/h (1 Bft)
21.08.2018 04:50 15,3 C 87 % 1017,4 hPa 0,0 mm W 268 0,0 km/h (0 Bft)
21.08.2018 04:55 15,3 C 88 % 1017,4 hPa 0,0 mm W 268 0,0 km/h (0 Bft)
21.08.2018 05:00 14,9 C 88 % 1017,5 hPa 0,0 mm W 268 1,6 km/h (1 Bft)
21.08.2018 05:05 14,8 C 89 % 1017,6 hPa 0,0 mm W 268 0,0 km/h (0 Bft)
21.08.2018 05:10 14,7 C 90 % 1017,6 hPa 0,0 mm W 268 1,6 km/h (1 Bft)
21.08.2018 05:15 14,9 C 90 % 1017,7 hPa 0,0 mm W 268 0,0 km/h (0 Bft)
21.08.2018 05:20 14,9 C 90 % 1017,7 hPa 0,0 mm W 268 0,0 km/h (0 Bft)
21.08.2018 05:25 15,2 C 90 % 1017,7 hPa 0,0 mm W 268 0,0 km/h (0 Bft)
21.08.2018 05:30 14,9 C 89 % 1017,7 hPa 0,0 mm W 268 3,2 km/h (1 Bft)
21.08.2018 05:35 14,8 C 89 % 1017,7 hPa 0,0 mm W 268 4,8 km/h (1 Bft)
21.08.2018 05:40 14,9 C 90 % 1017,7 hPa 0,0 mm W 268 3,2 km/h (1 Bft)
21.08.2018 05:45 15,0 C 89 % 1017,8 hPa 0,0 mm W 268 4,8 km/h (1 Bft)
21.08.2018 05:50 14,8 C 89 % 1017,9 hPa 0,0 mm W 268 3,2 km/h (1 Bft)
21.08.2018 05:55 14,7 C 89 % 1017,9 hPa 0,0 mm W 268 3,2 km/h (1 Bft)
21.08.2018 06:00 14,6 C 89 % 1017,9 hPa 0,0 mm W 268 3,2 km/h (1 Bft)
21.08.2018 06:05 14,6 C 90 % 1018,0 hPa 0,0 mm W 268 3,2 km/h (1 Bft)
21.08.2018 06:10 14,7 C 90 % 1018,0 hPa 0,0 mm W 268 0,0 km/h (0 Bft)
21.08.2018 06:15 14,5 C 89 % 1018,1 hPa 0,0 mm W 268 0,0 km/h (0 Bft)
21.08.2018 06:20 14,2 C 90 % 1018,2 hPa 0,0 mm W 268 0,0 km/h (0 Bft)
21.08.2018 06:25 14,2 C 90 % 1018,1 hPa 0,0 mm W 268 0,0 km/h (0 Bft)
21.08.2018 06:30 14,3 C 90 % 1018,2 hPa 0,0 mm W 268 4,8 km/h (1 Bft)
21.08.2018 06:35 14,3 C 90 % 1018,3 hPa 0,0 mm W 268 3,2 km/h (1 Bft)
21.08.2018 06:40 14,4 C 91 % 1018,4 hPa 0,0 mm W 268 3,2 km/h (1 Bft)
21.08.2018 06:45 14,8 C 91 % 1018,4 hPa 0,0 mm W 268 4,8 km/h (1 Bft)
21.08.2018 06:50 15,2 C 90 % 1018,4 hPa 0,0 mm W 268 4,8 km/h (1 Bft)
21.08.2018 06:55 15,7 C 89 % 1018,4 hPa 0,0 mm W 268 4,8 km/h (1 Bft)
21.08.2018 07:00 15,8 C 89 % 1018,4 hPa 0,0 mm W 268 4,8 km/h (1 Bft)
21.08.2018 07:05 15,9 C 88 % 1018,4 hPa 0,0 mm W 268 1,6 km/h (1 Bft)
21.08.2018 07:10 16,3 C 89 % 1018,5 hPa 0,0 mm W 268 3,2 km/h (1 Bft)
21.08.2018 07:15 16,8 C 87 % 1018,5 hPa 0,0 mm W 268 3,2 km/h (1 Bft)
21.08.2018 07:20 17,1 C 86 % 1018,5 hPa 0,0 mm W 268 3,2 km/h (1 Bft)
21.08.2018 07:25 17,5 C 85 % 1018,5 hPa 0,0 mm W 268 4,8 km/h (1 Bft)
21.08.2018 07:30 17,7 C 84 % 1018,5 hPa 0,0 mm W 268 3,2 km/h (1 Bft)
21.08.2018 07:35 18,1 C 84 % 1018,5 hPa 0,0 mm W 268 4,8 km/h (1 Bft)
21.08.2018 07:40 18,5 C 83 % 1018,5 hPa 0,0 mm W 268 4,8 km/h (1 Bft)
21.08.2018 07:45 18,8 C 82 % 1018,5 hPa 0,0 mm W 269 6,4 km/h (2 Bft)
21.08.2018 07:50 18,9 C 81 % 1018,4 hPa 0,0 mm W 269 3,2 km/h (1 Bft)
21.08.2018 07:55 18,5 C 84 % 1018,5 hPa 0,0 mm W 269 1,6 km/h (1 Bft)
21.08.2018 08:00 18,4 C 85 % 1018,5 hPa 0,0 mm W 269 1,6 km/h (1 Bft)
21.08.2018 08:05 18,8 C 84 % 1018,6 hPa 0,0 mm W 269 1,6 km/h (1 Bft)
21.08.2018 08:10 18,6 C 83 % 1018,6 hPa 0,0 mm W 269 1,6 km/h (1 Bft)
21.08.2018 08:15 18,7 C 83 % 1018,6 hPa 0,0 mm W 269 1,6 km/h (1 Bft)
21.08.2018 08:20 18,8 C 83 % 1018,6 hPa 0,0 mm W 269 1,6 km/h (1 Bft)
21.08.2018 08:25 18,9 C 83 % 1018,6 hPa 0,0 mm W 269 0,0 km/h (0 Bft)
21.08.2018 08:30 19,1 C 81 % 1018,6 hPa 0,0 mm W 269 0,0 km/h (0 Bft)
21.08.2018 08:35 19,4 C 81 % 1018,6 hPa 0,0 mm W 269 0,0 km/h (0 Bft)
21.08.2018 08:40 19,6 C 79 % 1018,6 hPa 0,0 mm W 269 0,0 km/h (0 Bft)
21.08.2018 08:45 19,8 C 78 % 1018,6 hPa 0,0 mm W-SW 257 0,0 km/h (0 Bft)
21.08.2018 08:50 20,1 C 78 % 1018,6 hPa 0,0 mm W-SW 257 0,0 km/h (0 Bft)
21.08.2018 08:55 20,2 C 78 % 1018,5 hPa 0,0 mm W-SW 257 0,0 km/h (0 Bft)
21.08.2018 09:00 20,4 C 78 % 1018,6 hPa 0,0 mm W-SW 257 0,0 km/h (0 Bft)
21.08.2018 09:05 20,7 C 76 % 1018,6 hPa 0,0 mm W 263 3,2 km/h (1 Bft)
21.08.2018 09:10 21,1 C 75 % 1018,6 hPa 0,0 mm W 263 3,2 km/h (1 Bft)
21.08.2018 09:15 21,3 C 73 % 1018,6 hPa 0,0 mm W 263 1,6 km/h (1 Bft)
21.08.2018 09:20 21,5 C 73 % 1018,6 hPa 0,0 mm W-SW 247 1,6 km/h (1 Bft)
21.08.2018 09:25 21,7 C 72 % 1018,6 hPa 0,0 mm W-SW 247 3,2 km/h (1 Bft)
21.08.2018 09:30 21,8 C 71 % 1018,6 hPa 0,0 mm W-SW 247 1,6 km/h (1 Bft)
21.08.2018 09:35 22,5 C 70 % 1018,6 hPa 0,0 mm W-SW 247 0,0 km/h (0 Bft)
21.08.2018 09:40 22,7 C 68 % 1018,6 hPa 0,0 mm W-SW 247 1,6 km/h (1 Bft)
21.08.2018 09:45 22,7 C 67 % 1018,6 hPa 0,0 mm W-SW 246 1,6 km/h (1 Bft)
21.08.2018 09:50 22,8 C 73 % 1018,5 hPa 0,0 mm W-SW 246 1,6 km/h (1 Bft)
21.08.2018 09:55 23,9 C 66 % 1018,5 hPa 0,0 mm W-SW 246 3,2 km/h (1 Bft)
21.08.2018 10:00 23,8 C 65 % 1018,5 hPa 0,0 mm W 265 6,4 km/h (2 Bft)
21.08.2018 10:05 23,6 C 66 % 1018,5 hPa 0,0 mm W-SW 246 4,8 km/h (1 Bft)
21.08.2018 10:10 23,6 C 67 % 1018,5 hPa 0,0 mm W-SW 238 3,2 km/h (1 Bft)
21.08.2018 10:15 23,3 C 68 % 1018,5 hPa 0,0 mm S 170 4,8 km/h (1 Bft)
21.08.2018 10:20 23,4 C 68 % 1018,6 hPa 0,0 mm S 170 4,8 km/h (1 Bft)
21.08.2018 10:25 23,5 C 66 % 1018,5 hPa 0,0 mm S 169 4,8 km/h (1 Bft)
21.08.2018 10:30 24,1 C 68 % 1018,5 hPa 0,0 mm SW 225 4,8 km/h (1 Bft)
21.08.2018 10:35 25,0 C 68 % 1018,5 hPa 0,0 mm SW 225 3,2 km/h (1 Bft)
21.08.2018 10:40 24,6 C 66 % 1018,4 hPa 0,0 mm SW 215 3,2 km/h (1 Bft)
21.08.2018 10:45 24,0 C 66 % 1018,4 hPa 0,0 mm SO 141 4,8 km/h (1 Bft)
21.08.2018 10:50 24,1 C 66 % 1018,4 hPa 0,0 mm SO 141 4,8 km/h (1 Bft)
21.08.2018 10:55 24,2 C 66 % 1018,3 hPa 0,0 mm SO 141 3,2 km/h (1 Bft)
21.08.2018 11:00 24,7 C 65 % 1018,3 hPa 0,0 mm SO 141 1,6 km/h (1 Bft)
21.08.2018 11:05 25,1 C 65 % 1018,3 hPa 0,0 mm O-SO 119 4,8 km/h (1 Bft)
21.08.2018 11:10 24,5 C 64 % 1018,2 hPa 0,0 mm SO 130 6,4 km/h (2 Bft)
21.08.2018 11:15 24,6 C 64 % 1018,1 hPa 0,0 mm SO 130 4,8 km/h (1 Bft)
21.08.2018 11:20 24,9 C 65 % 1018,1 hPa 0,0 mm O-SO 115 4,8 km/h (1 Bft)
21.08.2018 11:25 24,7 C 63 % 1018,2 hPa 0,0 mm O-SO 115 4,8 km/h (1 Bft)
21.08.2018 11:30 25,1 C 62 % 1018,1 hPa 0,0 mm O-SO 115 1,6 km/h (1 Bft)
21.08.2018 11:35 25,2 C 62 % 1018,2 hPa 0,0 mm S-SO 147 6,4 km/h (2 Bft)
21.08.2018 11:40 25,2 C 62 % 1018,0 hPa 0,0 mm O 92 6,4 km/h (2 Bft)
21.08.2018 11:45 26,1 C 60 % 1018,0 hPa 0,0 mm O 92 1,6 km/h (1 Bft)
21.08.2018 11:50 26,5 C 59 % 1017,9 hPa 0,0 mm O-NO 74 4,8 km/h (1 Bft)
21.08.2018 11:55 26,3 C 63 % 1017,9 hPa 0,0 mm O-NO 70 4,8 km/h (1 Bft)
21.08.2018 12:00 25,8 C 64 % 1017,9 hPa 0,0 mm S-SO 148 6,4 km/h (2 Bft)
21.08.2018 12:05 25,6 C 63 % 1017,8 hPa 0,0 mm SO 132 4,8 km/h (1 Bft)
21.08.2018 12:10 25,9 C 64 % 1017,8 hPa 0,0 mm O 89 8,0 km/h (2 Bft)
21.08.2018 12:15 26,0 C 60 % 1017,8 hPa 0,0 mm S-SO 148 6,4 km/h (2 Bft)
21.08.2018 12:20 26,0 C 61 % 1017,8 hPa 0,0 mm SO 132 6,4 km/h (2 Bft)
21.08.2018 12:25 26,4 C 59 % 1017,7 hPa 0,0 mm SO 128 8,0 km/h (2 Bft)
21.08.2018 12:30 26,6 C 63 % 1017,7 hPa 0,0 mm O 101 11,3 km/h (2 Bft)
21.08.2018 12:35 26,6 C 62 % 1017,6 hPa 0,0 mm SO 136 11,3 km/h (2 Bft)
21.08.2018 12:40 26,6 C 58 % 1017,5 hPa 0,0 mm S-SO 163 9,7 km/h (2 Bft)
21.08.2018 12:45 26,7 C 61 % 1017,5 hPa 0,0 mm O 81 8,0 km/h (2 Bft)
21.08.2018 12:50 26,8 C 58 % 1017,5 hPa 0,0 mm O 81 6,4 km/h (2 Bft)
21.08.2018 12:55 26,9 C 58 % 1017,5 hPa 0,0 mm S-SO 159 8,0 km/h (2 Bft)
21.08.2018 13:00 26,9 C 60 % 1017,4 hPa 0,0 mm SO 142 9,7 km/h (2 Bft)
21.08.2018 13:05 27,1 C 58 % 1017,3 hPa 0,0 mm O 98 9,7 km/h (2 Bft)
21.08.2018 13:10 27,2 C 58 % 1017,2 hPa 0,0 mm SO 135 11,3 km/h (2 Bft)
21.08.2018 13:15 27,2 C 55 % 1017,1 hPa 0,0 mm O 101 9,7 km/h (2 Bft)
21.08.2018 13:20 27,3 C 55 % 1017,1 hPa 0,0 mm SO 142 9,7 km/h (2 Bft)
21.08.2018 13:25 27,4 C 61 % 1017,1 hPa 0,0 mm SO 140 11,3 km/h (2 Bft)
21.08.2018 13:30 27,6 C 56 % 1017,0 hPa 0,0 mm O 96 12,9 km/h (3 Bft)
21.08.2018 13:35 27,4 C 58 % 1016,9 hPa 0,0 mm O-NO 73 14,5 km/h (3 Bft)
21.08.2018 13:40 27,4 C 54 % 1016,9 hPa 0,0 mm O 80 20,9 km/h (4 Bft)
21.08.2018 13:45 27,4 C 57 % 1016,8 hPa 0,0 mm O-NO 73 14,5 km/h (3 Bft)
21.08.2018 13:50 27,6 C 56 % 1016,8 hPa 0,0 mm O-NO 63 11,3 km/h (2 Bft)
21.08.2018 13:55 27,7 C 55 % 1016,8 hPa 0,0 mm NO 54 11,3 km/h (2 Bft)
21.08.2018 14:00 27,6 C 51 % 1016,8 hPa 0,0 mm SO 126 12,9 km/h (3 Bft)
21.08.2018 14:05 27,7 C 54 % 1016,7 hPa 0,0 mm O-SO 117 4,8 km/h (1 Bft)
21.08.2018 14:10 27,7 C 56 % 1016,6 hPa 0,0 mm NO 54 16,1 km/h (3 Bft)
21.08.2018 14:15 27,7 C 52 % 1016,5 hPa 0,0 mm O 94 11,3 km/h (2 Bft)
21.08.2018 14:20 27,9 C 57 % 1016,5 hPa 0,0 mm O-SO 110 9,7 km/h (2 Bft)
21.08.2018 14:25 28,2 C 56 % 1016,5 hPa 0,0 mm N-NW 345 11,3 km/h (2 Bft)
21.08.2018 14:30 28,0 C 52 % 1016,4 hPa 0,0 mm NO 34 11,3 km/h (2 Bft)
21.08.2018 14:35 27,9 C 54 % 1016,4 hPa 0,0 mm O-SO 120 11,3 km/h (2 Bft)
21.08.2018 14:40 27,8 C 52 % 1016,3 hPa 0,0 mm O 100 9,7 km/h (2 Bft)
21.08.2018 14:45 28,0 C 47 % 1016,2 hPa 0,0 mm N 5 8,0 km/h (2 Bft)
21.08.2018 14:50 28,1 C 50 % 1016,2 hPa 0,0 mm O-NO 74 11,3 km/h (2 Bft)
21.08.2018 14:55 28,2 C 50 % 1016,1 hPa 0,0 mm N-NO 14 8,0 km/h (2 Bft)
21.08.2018 15:00 28,2 C 49 % 1016,1 hPa 0,0 mm N-NO 22 11,3 km/h (2 Bft)
21.08.2018 15:05 27,9 C 48 % 1016,1 hPa 0,0 mm O-NO 74 11,3 km/h (2 Bft)
21.08.2018 15:10 28,2 C 50 % 1015,9 hPa 0,0 mm NO 39 4,8 km/h (1 Bft)
21.08.2018 15:15 28,1 C 51 % 1015,9 hPa 0,0 mm NO 34 11,3 km/h (2 Bft)
21.08.2018 15:20 28,0 C 47 % 1015,9 hPa 0,0 mm N-NO 15 12,9 km/h (3 Bft)
21.08.2018 15:25 28,0 C 49 % 1015,9 hPa 0,0 mm NO 51 8,0 km/h (2 Bft)
21.08.2018 15:30 28,2 C 47 % 1015,9 hPa 0,0 mm N-NW 335 12,9 km/h (3 Bft)
21.08.2018 15:35 28,3 C 46 % 1015,9 hPa 0,0 mm N-NO 15 12,9 km/h (3 Bft)
21.08.2018 15:40 28,1 C 46 % 1015,8 hPa 0,0 mm N 360 14,5 km/h (3 Bft)
21.08.2018 15:45 28,4 C 47 % 1015,8 hPa 0,0 mm W 259 11,3 km/h (2 Bft)
21.08.2018 15:50 28,4 C 46 % 1015,7 hPa 0,0 mm O-NO 65 14,5 km/h (3 Bft)
21.08.2018 15:55 28,3 C 48 % 1015,7 hPa 0,0 mm N-NO 17 8,0 km/h (2 Bft)
21.08.2018 16:00 28,1 C 45 % 1015,6 hPa 0,0 mm N-NO 15 14,5 km/h (3 Bft)
21.08.2018 16:05 28,2 C 48 % 1015,6 hPa 0,0 mm NO 46 9,7 km/h (2 Bft)
21.08.2018 16:10 28,0 C 49 % 1015,6 hPa 0,0 mm NO 54 8,0 km/h (2 Bft)
21.08.2018 16:15 28,1 C 48 % 1015,5 hPa 0,0 mm O 79 12,9 km/h (3 Bft)
21.08.2018 16:20 27,9 C 50 % 1015,6 hPa 0,0 mm NO 44 14,5 km/h (3 Bft)
21.08.2018 16:25 27,8 C 49 % 1015,5 hPa 0,0 mm NO 52 16,1 km/h (3 Bft)
21.08.2018 16:30 27,8 C 46 % 1015,6 hPa 0,0 mm N 5 11,3 km/h (2 Bft)
21.08.2018 16:35 27,9 C 47 % 1015,5 hPa 0,0 mm O-NO 71 9,7 km/h (2 Bft)
21.08.2018 16:40 28,1 C 48 % 1015,6 hPa 0,0 mm O-NO 77 11,3 km/h (2 Bft)
21.08.2018 16:45 27,9 C 51 % 1015,5 hPa 0,0 mm O 79 8,0 km/h (2 Bft)
21.08.2018 16:50 27,8 C 51 % 1015,5 hPa 0,0 mm O-NO 77 9,7 km/h (2 Bft)
21.08.2018 16:55 27,7 C 48 % 1015,5 hPa 0,0 mm O 83 11,3 km/h (2 Bft)
21.08.2018 17:00 27,6 C 53 % 1015,5 hPa 0,0 mm O-SO 121 9,7 km/h (2 Bft)
21.08.2018 17:05 27,5 C 50 % 1015,4 hPa 0,0 mm O-SO 108 8,0 km/h (2 Bft)
21.08.2018 17:10 27,4 C 52 % 1015,4 hPa 0,0 mm O-NO 60 11,3 km/h (2 Bft)
21.08.2018 17:15 27,4 C 52 % 1015,3 hPa 0,0 mm SO 134 12,9 km/h (3 Bft)
21.08.2018 17:20 27,4 C 51 % 1015,3 hPa 0,0 mm O-SO 104 12,9 km/h (3 Bft)
21.08.2018 17:25 27,3 C 54 % 1015,2 hPa 0,0 mm SO 127 8,0 km/h (2 Bft)
21.08.2018 17:30 27,3 C 54 % 1015,2 hPa 0,0 mm O 93 8,0 km/h (2 Bft)
21.08.2018 17:35 27,2 C 51 % 1015,3 hPa 0,0 mm O-SO 123 12,9 km/h (3 Bft)
21.08.2018 17:40 27,2 C 53 % 1015,2 hPa 0,0 mm O 95 11,3 km/h (2 Bft)
21.08.2018 17:45 27,2 C 52 % 1015,2 hPa 0,0 mm NO 54 9,7 km/h (2 Bft)
21.08.2018 17:50 27,1 C 52 % 1015,2 hPa 0,0 mm O 84 11,3 km/h (2 Bft)
21.08.2018 17:55 27,1 C 52 % 1015,1 hPa 0,0 mm O-NO 76 9,7 km/h (2 Bft)
21.08.2018 18:00 27,2 C 49 % 1015,2 hPa 0,0 mm O-NO 69 8,0 km/h (2 Bft)
21.08.2018 18:05 27,2 C 50 % 1015,2 hPa 0,0 mm NO 52 6,4 km/h (2 Bft)
21.08.2018 18:10 26,9 C 50 % 1015,2 hPa 0,0 mm O 94 8,0 km/h (2 Bft)
21.08.2018 18:15 26,6 C 54 % 1015,2 hPa 0,0 mm O 81 9,7 km/h (2 Bft)
21.08.2018 18:20 26,6 C 54 % 1015,2 hPa 0,0 mm O 82 8,0 km/h (2 Bft)
21.08.2018 18:25 26,8 C 51 % 1015,2 hPa 0,0 mm NO 51 8,0 km/h (2 Bft)
21.08.2018 18:30 26,7 C 52 % 1015,2 hPa 0,0 mm O 92 12,9 km/h (3 Bft)
21.08.2018 18:35 26,5 C 51 % 1015,2 hPa 0,0 mm O 84 9,7 km/h (2 Bft)
21.08.2018 18:40 26,4 C 51 % 1015,3 hPa 0,0 mm O 89 11,3 km/h (2 Bft)
21.08.2018 18:45 26,3 C 51 % 1015,3 hPa 0,0 mm O 80 11,3 km/h (2 Bft)
21.08.2018 18:50 26,1 C 56 % 1015,2 hPa 0,0 mm O-SO 115 11,3 km/h (2 Bft)
21.08.2018 18:55 25,9 C 53 % 1015,3 hPa 0,0 mm O-NO 73 11,3 km/h (2 Bft)
21.08.2018 19:00 25,8 C 56 % 1015,2 hPa 0,0 mm O 86 4,8 km/h (1 Bft)
21.08.2018 19:05 25,4 C 58 % 1015,2 hPa 0,0 mm O 86 4,8 km/h (1 Bft)
21.08.2018 19:10 25,4 C 57 % 1015,2 hPa 0,0 mm O 86 3,2 km/h (1 Bft)
21.08.2018 19:15 25,4 C 58 % 1015,2 hPa 0,0 mm O 86 8,0 km/h (2 Bft)
21.08.2018 19:20 25,2 C 58 % 1015,3 hPa 0,0 mm O 86 0,0 km/h (0 Bft)
21.08.2018 19:25 25,0 C 59 % 1015,3 hPa 0,0 mm O 86 1,6 km/h (1 Bft)
21.08.2018 19:30 24,8 C 59 % 1015,3 hPa 0,0 mm O 86 1,6 km/h (1 Bft)
21.08.2018 19:35 24,4 C 60 % 1015,3 hPa 0,0 mm O 86 1,6 km/h (1 Bft)
21.08.2018 19:40 24,3 C 59 % 1015,3 hPa 0,0 mm O 86 0,0 km/h (0 Bft)
21.08.2018 19:45 24,2 C 60 % 1015,4 hPa 0,0 mm O 86 0,0 km/h (0 Bft)
21.08.2018 19:50 23,7 C 62 % 1015,4 hPa 0,0 mm O 86 0,0 km/h (0 Bft)
21.08.2018 19:55 23,3 C 63 % 1015,5 hPa 0,0 mm O 86 0,0 km/h (0 Bft)
21.08.2018 20:00 23,2 C 63 % 1015,5 hPa 0,0 mm O 86 0,0 km/h (0 Bft)
21.08.2018 20:05 22,9 C 66 % 1015,5 hPa 0,0 mm O 86 0,0 km/h (0 Bft)
21.08.2018 20:10 22,5 C 67 % 1015,6 hPa 0,0 mm O 86 1,6 km/h (1 Bft)
21.08.2018 20:15 22,2 C 68 % 1015,6 hPa 0,0 mm O 86 0,0 km/h (0 Bft)
21.08.2018 20:20 21,9 C 70 % 1015,7 hPa 0,0 mm O 86 0,0 km/h (0 Bft)
21.08.2018 20:25 21,5 C 72 % 1015,7 hPa 0,0 mm O 86 0,0 km/h (0 Bft)
21.08.2018 20:30 21,2 C 73 % 1015,8 hPa 0,0 mm O 86 0,0 km/h (0 Bft)
21.08.2018 20:35 20,9 C 74 % 1015,9 hPa 0,0 mm O 86 0,0 km/h (0 Bft)
21.08.2018 20:40 20,6 C 74 % 1016,0 hPa 0,0 mm O 86 0,0 km/h (0 Bft)
21.08.2018 20:45 20,4 C 75 % 1016,0 hPa 0,0 mm O 86 3,2 km/h (1 Bft)
21.08.2018 20:50 20,4 C 75 % 1016,0 hPa 0,0 mm O 86 0,0 km/h (0 Bft)
21.08.2018 20:55 20,5 C 75 % 1016,1 hPa 0,0 mm O 86 0,0 km/h (0 Bft)
21.08.2018 21:00 20,2 C 75 % 1016,2 hPa 0,0 mm O-NO 63 3,2 km/h (1 Bft)
21.08.2018 21:05 19,7 C 77 % 1016,2 hPa 0,0 mm NW 308 4,8 km/h (1 Bft)
21.08.2018 21:10 19,7 C 77 % 1016,3 hPa 0,0 mm NW 308 4,8 km/h (1 Bft)
21.08.2018 21:15 19,6 C 77 % 1016,3 hPa 0,0 mm NW 308 4,8 km/h (1 Bft)
21.08.2018 21:20 19,6 C 78 % 1016,4 hPa 0,0 mm NW 308 4,8 km/h (1 Bft)
21.08.2018 21:25 19,4 C 78 % 1016,5 hPa 0,0 mm NW 308 3,2 km/h (1 Bft)
21.08.2018 21:30 18,9 C 79 % 1016,5 hPa 0,0 mm NW 308 3,2 km/h (1 Bft)
21.08.2018 21:35 18,7 C 80 % 1016,6 hPa 0,0 mm NW 308 3,2 km/h (1 Bft)
21.08.2018 21:40 18,8 C 80 % 1016,6 hPa 0,0 mm NW 308 3,2 km/h (1 Bft)
21.08.2018 21:45 19,2 C 78 % 1016,6 hPa 0,0 mm NW 308 3,2 km/h (1 Bft)
21.08.2018 21:50 18,8 C 79 % 1016,6 hPa 0,0 mm NW 308 1,6 km/h (1 Bft)
21.08.2018 21:55 18,5 C 80 % 1016,6 hPa 0,0 mm NW 308 4,8 km/h (1 Bft)
21.08.2018 22:00 18,4 C 81 % 1016,6 hPa 0,0 mm NW 308 4,8 km/h (1 Bft)
21.08.2018 22:05 18,6 C 80 % 1016,6 hPa 0,0 mm NW 308 4,8 km/h (1 Bft)
21.08.2018 22:10 18,7 C 80 % 1016,6 hPa 0,0 mm NW 308 4,8 km/h (1 Bft)
21.08.2018 22:15 18,3 C 80 % 1016,6 hPa 0,0 mm NW 308 4,8 km/h (1 Bft)
21.08.2018 22:20 18,1 C 81 % 1016,7 hPa 0,0 mm NW 308 4,8 km/h (1 Bft)
21.08.2018 22:25 17,9 C 82 % 1016,7 hPa 0,0 mm NW 308 3,2 km/h (1 Bft)
21.08.2018 22:30 18,1 C 82 % 1016,7 hPa 0,0 mm NW 308 4,8 km/h (1 Bft)
21.08.2018 22:35 18,3 C 80 % 1016,7 hPa 0,0 mm NW 308 4,8 km/h (1 Bft)
21.08.2018 22:40 17,9 C 82 % 1016,8 hPa 0,0 mm NW 308 1,6 km/h (1 Bft)
21.08.2018 22:45 17,9 C 82 % 1016,8 hPa 0,0 mm NW 308 3,2 km/h (1 Bft)
21.08.2018 22:50 17,8 C 82 % 1016,8 hPa 0,0 mm NW 308 1,6 km/h (1 Bft)
21.08.2018 22:55 17,6 C 83 % 1016,8 hPa 0,0 mm NW 308 3,2 km/h (1 Bft)
21.08.2018 23:00 17,7 C 83 % 1016,8 hPa 0,0 mm NW 308 3,2 km/h (1 Bft)
21.08.2018 23:05 18,1 C 83 % 1016,8 hPa 0,0 mm NW 308 3,2 km/h (1 Bft)
21.08.2018 23:10 18,3 C 81 % 1016,8 hPa 0,0 mm NW 308 3,2 km/h (1 Bft)
21.08.2018 23:15 18,2 C 82 % 1016,9 hPa 0,0 mm NW 308 4,8 km/h (1 Bft)
21.08.2018 23:20 18,2 C 82 % 1016,9 hPa 0,0 mm NW 308 1,6 km/h (1 Bft)
21.08.2018 23:25 18,2 C 81 % 1016,9 hPa 0,0 mm NW 308 3,2 km/h (1 Bft)
21.08.2018 23:30 17,9 C 82 % 1016,9 hPa 0,0 mm NW 308 1,6 km/h (1 Bft)
21.08.2018 23:35 17,7 C 83 % 1016,9 hPa 0,0 mm NW 308 3,2 km/h (1 Bft)
21.08.2018 23:40 17,7 C 84 % 1017,0 hPa 0,0 mm NW 308 0,0 km/h (0 Bft)
21.08.2018 23:45 17,8 C 83 % 1017,0 hPa 0,0 mm NW 308 3,2 km/h (1 Bft)
21.08.2018 23:50 17,5 C 84 % 1017,0 hPa 0,0 mm NW 308 1,6 km/h (1 Bft)
21.08.2018 23:55 17,3 C 85 % 1017,0 hPa 0,0 mm NW 308 0,0 km/h (0 Bft)
_ Min-Zeit 06:25 16:00 17:55 - - - 03:00
Minimum _ 14,1 C 45 % 1015,1 hPa - - - 0,0 km/h (0 Bft)
_ Max-Zeit 15:50 06:40 08:05 00:00 - - 13:40
Maximum _ 28,6 C 91 % 1018,6 hPa 0,0 mm - - 20,9 km/h
O (4 Bft)
Durchschnitt _ 21,5 C 71 % 1017,0 hPa #0,0 mm W - 5,2 km/h (1 Bft)